This is the latest recevied weather packets stored in our database for station/object K2RMB. If no packets are shown the sender has not sent any weather packets the latest 10 day(s).
| Time | Temp. | Humidity | Pressure | Rain* | Wind** | Luminosity | Snow |
|---|---|---|---|---|---|---|---|
| 1777776555 | 3.89° C | 65% | 1012.9 hPa | 0 mm | - | 0 W/m² | - |
| 1777776251 | 3.89° C | 64% | 1012.9 hPa | 0 mm | - | 0 W/m² | - |
| 1777775948 | 3.33° C | 64% | 1012.9 hPa | 0 mm | - | 0 W/m² | - |
| 1777775645 | 3.33° C | 67% | 1012.9 hPa | 0 mm | - | 0 W/m² | - |
| 1777775342 | 3.33° C | 65% | 1012.9 hPa | 0 mm | - | 0 W/m² | - |
| 1777775041 | 3.89° C | 64% | 1012.9 hPa | 0 mm | - | 0 W/m² | - |
| 1777774738 | 3.89° C | 66% | 1012.9 hPa | 0 mm | - | 0 W/m² | - |
| 1777774434 | 3.89° C | 62% | 1012.9 hPa | 0 mm | - | 0 W/m² | - |
| 1777774132 | 3.89° C | 64% | 1012.9 hPa | 0 mm | - | 0 W/m² | - |
| 1777773830 | 3.89° C | 65% | 1012.9 hPa | 0 mm | - | 0 W/m² | - |
| 1777773526 | 3.33° C | 65% | 1013.3 hPa | 0 mm | - | 0 W/m² | - |
| 1777773223 | 3.89° C | 63% | 1013.3 hPa | 0 mm | - | 0 W/m² | - |
| 1777772918 | 3.89° C | 63% | 1013.3 hPa | 0 mm | - | 0 W/m² | - |
| 1777772616 | 3.89° C | 62% | 1012.9 hPa | 0 mm | - | 0 W/m² | - |
| 1777772314 | 3.89° C | 65% | 1013.3 hPa | 0 mm | - | 0 W/m² | - |
| 1777772011 | 3.89° C | 65% | 1013.3 hPa | 0 mm | - | 0 W/m² | - |
| 1777771708 | 3.89° C | 64% | 1013.3 hPa | 0 mm | - | 0 W/m² | - |
| 1777771406 | 4.44° C | 65% | 1013.3 hPa | 0 mm | - | 0 W/m² | - |
| 1777771102 | 4.44° C | 63% | 1013.3 hPa | 0 mm | - | 0 W/m² | - |
| 1777770799 | 4.44° C | 61% | 1013.6 hPa | 0 mm | - | 0 W/m² | - |
| 1777770495 | 5° C | 62% | 1013.3 hPa | 0 mm | - | 0 W/m² | - |
| 1777770193 | 5° C | 58% | 1013.3 hPa | 0 mm | - | 0 W/m² | - |
| 1777769889 | 5.56° C | 57% | 1013.3 hPa | 0 mm | - | 0 W/m² | - |
| 1777769587 | 6.11° C | 54% | 1013.3 hPa | 0 mm | - | 0 W/m² | - |
| 1777769283 | 5.56° C | 55% | 1012.9 hPa | 0 mm | - | 0 W/m² | - |
* Rain latest hour (hover to see other rain measurements)
** Current wind speed in m/s (hover to see current wind gust speed)